STARLINK-3201 (49771 NORAD) Tracking and Keplerian Element Data

This shows tracking and keplerian element data for the satellite.

Feedback or suggestion? Click here.




ElementValue
Catalog49771
NameSTARLINK-3201
Epoch Orbit130
Epoch Day140.58334491
Epoch Year2022
RAAN255.0692
Inclination53.2154
Eccentricity0.0001967
Argument of Perigee39.4253
Mean Anonmoly152.0822
Mean Motion15.08862727
Decay Rate-0.00061377
L11 49771U 21115AZ 22140.58334491 -.00061377 00000+0 -38689-2 0 9995
L22 49771 53.2154 255.0692 0001967 39.4253 152.0822 15.08862727 1308

Live tracking and technical data element details for STARLINK-3201 (NORAD 49771). STARLINK-3201 can be tracked NOW for your location showing map with azimuth and elevation plus other details from your city location.

Track the satellite on the map from your city or location and see movement details for azimuth, elevation, latitude, longitude, range, height, and movement on the map or in text.







IsCatalogInMostPopularTable: catalog: 49771, numindb: 24
Update: records affected: 1



GetName: 49771 STARLINK-3201

Hit Count: updated at: Sun, 22 May 2022 03:40:57 GMT